Weather History for Asheville, NC

Change the Weather History Date:

Monday, February 16, 2009

  Actual Average Record
Temperature  
Mean Temperature 35 °F 40 °F  
Max Temperature 42 °F 51 °F 72 °F (1976)
Min Temperature 27 °F 30 °F 2 °F (1905)
Degree Days  
Heating Degree Days 30 24  
Month to date heating degree days 394 413  
Since 1 July heating degree days 2982 2940  
Cooling Degree Days 0 0  
Month to date cooling degree days 0 0  
Year to date cooling degree days 0 0  
Moisture  
Dew Point 19 °F    
Average Humidity 56    
Maximum Humidity 82    
Minimum Humidity 30    
Precipitation  
Precipitation 0.00 in 0.14 in 3.36 in (1990)
Month to date precipitation 0.71 2.15  
Year to date precipitation 3.11 5.82  
Snow  
Snow 0.00 in 0.00 in 8.30 in (1969)
Month to date snowfall T 1.3  
Since 1 July snowfall 1.0 6.4  
Snow Depth 0.00 in    
Sea Level Pressure  
Sea Level Pressure 30.18 in    
Wind  
Wind Speed 12 mph (NNW)    
Max Wind Speed 26 mph    
Max Gust Speed 31 mph    
Visibility 10 miles    
Events      
T = Trace of Precipitation, MM = Missing Value Source: NWS Daily Summary

Daily Weather History Graph

Daily Weather History Graph

Search for Another Location

Airport:

Trip Planner

Search our weather history database for the weather conditions in past years. The results will help you decide how hot, cold, wet, or windy it might be!

Date:

Astronomy

Feb. 16, 2009 Rise Set
Actual Time 7:15 AM EST 6:13 PM EST
Civil Twilight 6:49 AM EST 6:39 PM EST
Nautical Twilight 6:19 AM EST 7:09 PM EST
Astronomical Twilight 5:50 AM EST 7:38 PM EST
Moon 1:00 AM EST (2/16) 10:55 AM EST (2/16)
Length of Visible Light 11h 50m
Length of Day
10h 58m
Waning Gibbous, 52% of the Moon is Illuminated
Feb 16
Waning Gibbous
Feb 16
Last Quarter
Feb 24
New
Mar 4
First Quarter
Mar 10
Full

Hourly Weather History & Observations

Time (EST) Temp. Windchill Dew Point Humidity Pressure Visibility Wind Dir Wind Speed Gust Speed Precip Events Conditions
12:54 AM 35.1 °F 28.6 °F 26.1 °F 70% 30.09 in 10.0 mi NNW 8.1 mph - N/A   Clear
1:54 AM 35.1 °F 29.3 °F 23.0 °F 61% 30.08 in 10.0 mi North 6.9 mph - N/A   Clear
2:54 AM 35.1 °F 25.2 °F 25.0 °F 67% 30.08 in 10.0 mi NNW 16.1 mph 20.7 mph N/A   Mostly Cloudy
3:54 AM 34.0 °F 23.8 °F 28.0 °F 79% 30.08 in 10.0 mi North 16.1 mph 26.5 mph N/A   Overcast
4:10 AM 33.8 °F 23.5 °F 26.6 °F 75% 30.09 in 10.0 mi NNW 16.1 mph 25.3 mph N/A   Overcast
4:32 AM 33.8 °F 23.5 °F 24.8 °F 70% 30.09 in 10.0 mi NNW 16.1 mph 25.3 mph N/A   Overcast
4:54 AM 33.1 °F 21.5 °F 23.0 °F 66% 30.10 in 10.0 mi NNW 19.6 mph 28.8 mph N/A   Scattered Clouds
5:54 AM 30.9 °F 21.7 °F 23.0 °F 72% 30.13 in 10.0 mi North 11.5 mph 20.7 mph N/A   Clear
6:54 AM 30.9 °F 20.2 °F 21.0 °F 67% 30.15 in 10.0 mi NNW 15.0 mph 24.2 mph N/A   Clear
7:54 AM 30.0 °F 18.3 °F 21.0 °F 69% 30.16 in 10.0 mi North 17.3 mph 26.5 mph N/A   Clear
8:54 AM 32.0 °F 21.2 °F 21.0 °F 64% 30.18 in 10.0 mi North 16.1 mph 26.5 mph N/A   Clear
9:54 AM 34.0 °F 22.4 °F 19.0 °F 54% 30.20 in 10.0 mi NNW 20.7 mph 31.1 mph N/A   Partly Cloudy
10:54 AM 35.1 °F 25.9 °F 18.0 °F 50% 30.22 in 10.0 mi North 13.8 mph 25.3 mph N/A   Clear
11:54 AM 37.9 °F 30.0 °F 18.0 °F 45% 30.21 in 10.0 mi North 12.7 mph 23.0 mph N/A   Clear
12:54 PM 39.0 °F 31.0 °F 17.1 °F 41% 30.21 in 10.0 mi North 13.8 mph 24.2 mph N/A   Clear
1:54 PM 41.0 °F 33.1 °F 16.0 °F 36% 30.19 in 10.0 mi North 15.0 mph 21.9 mph N/A   Clear
2:54 PM 41.0 °F 33.9 °F 15.1 °F 35% 30.18 in 10.0 mi North 12.7 mph 25.3 mph N/A   Clear
3:54 PM 42.1 °F 33.9 °F 14.0 °F 32% 30.19 in 10.0 mi North 17.3 mph 25.3 mph N/A   Clear
4:54 PM 39.9 °F 32.1 °F 12.9 °F 33% 30.21 in 10.0 mi North 13.8 mph 24.2 mph N/A   Clear
5:54 PM 37.0 °F 28.1 °F 14.0 °F 39% 30.24 in 10.0 mi NNW 15.0 mph 23.0 mph N/A   Clear
6:54 PM 35.1 °F 26.4 °F 15.1 °F 44% 30.26 in 10.0 mi NNW 12.7 mph 19.6 mph N/A   Clear
7:54 PM 33.1 °F 26.9 °F 15.1 °F 48% 30.28 in 10.0 mi NNW 6.9 mph - N/A   Clear
8:54 PM 32.0 °F 24.8 °F 14.0 °F 48% 30.28 in 10.0 mi NNW 8.1 mph - N/A   Clear
9:54 PM 30.9 °F 25.2 °F 15.1 °F 52% 30.29 in 10.0 mi North 5.8 mph - N/A   Clear
10:54 PM 28.9 °F - 15.1 °F 56% 30.30 in 10.0 mi Calm Calm - N/A   Clear
11:54 PM 28.0 °F - 16.0 °F 61% 30.30 in 10.0 mi Calm Calm - N/A   Clear